Regional Weather Roundup
Issued by NWS Charleston, WV

Home | Current Version | Previous Version | Text Only | Print | Product List | Glossary On
Versions: 1 2 3 4 5 6 7 8 9 10 11 12 13 14 15 16 17 18 19 20 21 22 23 24 25 26 27 28 29 30 31 32 33 34 35 36 37 38 39 40 41 42 43 44 45 46 47 48 49 50
000
ASUS41 KRLX 231510
RWRRLX
West Virginia Regional Weather Roundup
National Weather Service Charleston WV
1100 AM EDT SAT MAY 23 2015

Note: "fair" indicates few or no clouds below 12,000 feet with no
significant weather and/or obstructions to visibility.

WVZ003-231600-
Northern Panhandle of West Virginia

CITY           SKY/WX    TMP DP  RH WIND       PRES   REMARKS
WHEELING       SUNNY     63  34  34 VRB3      30.44S
$$

WVZ009-231600-
Northwest West Virginia

CITY           SKY/WX    TMP DP  RH WIND       PRES   REMARKS
PARKERSBURG    MOSUNNY   67  38  34 SE6       30.45F
$$

WVZ006-231600-
Western West Virginia

CITY           SKY/WX    TMP DP  RH WIND       PRES   REMARKS
HUNTINGTON     MOSUNNY   66  52  60 SW6       30.41S
$$

WVZ015-231600-
West Central West Virginia

CITY           SKY/WX    TMP DP  RH WIND       PRES   REMARKS
CHARLESTON     PTSUNNY   66  51  58 VRB3      30.42S
$$

WVZ022-031-231600-
North Central West Virginia

CITY           SKY/WX    TMP DP  RH WIND       PRES   REMARKS
CLARKSBURG     SUNNY     64  39  39 VRB3      30.44S
MORGANTOWN     SUNNY     64  36  35 NE3       30.45F
$$

WVZ025-035-042-045-231600-
Southern West Virginia

CITY           SKY/WX    TMP DP  RH WIND       PRES   REMARKS
BECKLEY        PTSUNNY   65  46  50 W7        30.46S
LOGAN            N/A     64  50  59 CALM      30.41S
BLUEFIELD      PTSUNNY   65  44  46 CALM      30.48R
LEWISBURG      MOSUNNY   64  47  54 W6        30.46S
$$

WVZ047-231600-
Northern Mountains of West Virginia

CITY           SKY/WX    TMP DP  RH WIND       PRES   REMARKS
ELKINS         SUNNY     62  45  53 NW3       30.45F
$$

WVZ052-231600-
Eastern Panhandle of West Virginia

CITY           SKY/WX    TMP DP  RH WIND       PRES   REMARKS
MARTINSBURG    SUNNY     62  28  27 E5        30.47S
PETERSBURG     MOSUNNY   64  31  29 CALM      30.46F HAZE
$$



USA.gov is the U.S. government's official web portal to all federal, state and local government web resources and services.